| time (UTC) | temp F | wind direction | speed MPH | gust MPH | rain 1hr in | rain 24hr in | rain mn in | humidity % | barometer mb |
| 20260905220114 | 78 | 359 | 2.0 | 10.0 | 0.00 | 0.00 | 0.00 | 27 | 1011.0 |
| 20260905215511 | 78 | 130 | 0.0 | 7.0 | 0.00 | 0.00 | 0.00 | 28 | 1011.0 |
| 20260905215012 | 78 | 295 | 0.0 | 6.0 | 0.00 | 0.00 | 0.00 | 28 | 1011.0 |
| 20260905214512 | 78 | 310 | 0.0 | 11.0 | 0.00 | 0.00 | 0.00 | 29 | 1011.1 |
| 20260905214011 | 78 | 312 | 5.0 | 11.0 | 0.00 | 0.00 | 0.00 | 28 | 1011.1 |
| 20260905213513 | 78 | 14 | 2.0 | 10.0 | 0.00 | 0.00 | 0.00 | 28 | 1011.0 |
| 20260905213012 | 79 | 198 | 1.0 | 25.0 | 0.00 | 0.00 | 0.00 | 28 | 1011.3 |
| 20260905212511 | 78 | 244 | 17.0 | 26.0 | 0.00 | 0.00 | 0.00 | 28 | 1011.0 |
| 20260905212011 | 78 | 203 | 2.0 | 10.0 | 0.00 | 0.00 | 0.00 | 28 | 1011.3 |
| 20260905211511 | 79 | 173 | 4.0 | 9.0 | 0.00 | 0.00 | 0.00 | 28 | 1011.3 |
| 20260905211011 | 79 | 220 | 0.0 | 12.0 | 0.00 | 0.00 | 0.00 | 28 | 1011.3 |
| 20260905210512 | 78 | 203 | 2.0 | 12.0 | 0.00 | 0.00 | 0.00 | 29 | 1011.4 |
| 20260905210016 | 78 | 167 | 0.0 | 4.0 | 0.00 | 0.00 | 0.00 | 30 | 1011.4 |
| 20260905205511 | 78 | 278 | 0.0 | 4.0 | 0.00 | 0.00 | 0.00 | 29 | 1011.5 |
| 20260905205016 | 78 | 165 | 0.0 | 6.0 | 0.00 | 0.00 | 0.00 | 29 | 1011.5 |
| 20260905204512 | 78 | 164 | 0.0 | 6.0 | 0.00 | 0.00 | 0.00 | 30 | 1011.6 |
| 20260905204011 | 77 | 124 | 1.0 | 5.0 | 0.00 | 0.00 | 0.00 | 29 | 1011.8 |
| 20260905203512 | 77 | 64 | 0.0 | 7.0 | 0.00 | 0.00 | 0.00 | 30 | 1011.5 |
| 20260905203012 | 77 | 42 | 0.0 | 8.0 | 0.00 | 0.00 | 0.00 | 30 | 1011.6 |
| 20260905202511 | 75 | 350 | 1.0 | 8.0 | 0.00 | 0.00 | 0.00 | 32 | 1011.7 |
| 20260905202012 | 76 | 89 | 0.0 | 7.0 | 0.00 | 0.00 | 0.00 | 31 | 1011.8 |
| 20260905201519 | 77 | 156 | 0.0 | 7.0 | 0.00 | 0.00 | 0.00 | 30 | 1011.7 |
| 20260905201011 | 75 | 162 | 2.0 | 9.0 | 0.00 | 0.00 | 0.00 | 32 | 1011.7 |
| 20260905200512 | 75 | 63 | 4.0 | 9.0 | 0.00 | 0.00 | 0.00 | 33 | 1011.7 |
| 20260905200013 | 75 | 87 | 0.0 | 1.0 | 0.00 | 0.00 | 0.00 | 32 | 1011.8 |
| 20260905195511 | 74 | 91 | 0.0 | 3.0 | 0.00 | 0.00 | 0.00 | 34 | 1011.8 |
| 20260905195011 | 74 | 68 | 0.0 | 0.0 | 0.00 | 0.00 | 0.00 | 35 | 1011.8 |
| 20260905194511 | 74 | 73 | 0.0 | 0.0 | 0.00 | 0.00 | 0.00 | 36 | 1011.9 |
| 20260905194012 | 73 | 71 | 0.0 | 0.0 | 0.00 | 0.00 | 0.00 | 36 | 1011.9 |
| 20260905193512 | 73 | 72 | 0.0 | 0.0 | 0.00 | 0.00 | 0.00 | 36 | 1012.1 |
| 20260905193013 | 74 | 60 | 0.0 | 4.0 | 0.00 | 0.00 | 0.00 | 36 | 1012.1 |
| 20260905192515 | 74 | 59 | 1.0 | 6.0 | 0.00 | 0.00 | 0.00 | 35 | 1012.0 |
| 20260905192013 | 73 | 354 | 0.0 | 6.0 | 0.00 | 0.00 | 0.00 | 35 | 1012.0 |
| 20260905191512 | 73 | 33 | 0.0 | 6.0 | 0.00 | 0.00 | 0.00 | 36 | 1012.1 |
| 20260905191011 | 73 | 18 | 2.0 | 6.0 | 0.00 | 0.00 | 0.00 | 37 | 1012.1 |
| 20260905190514 | 72 | 165 | 0.0 | 7.0 | 0.00 | 0.00 | 0.00 | 39 | 1012.1 |
| 20260905190012 | 72 | 165 | 2.0 | 7.0 | 0.00 | 0.00 | 0.00 | 39 | 1012.2 |
| 20260905185511 | 72 | 167 | 1.0 | 4.0 | 0.00 | 0.00 | 0.00 | 39 | 1012.2 |
| 20260905185012 | 73 | 33 | 0.0 | 4.0 | 0.00 | 0.00 | 0.00 | 38 | 1012.3 |
| 20260905184512 | 72 | 20 | 0.0 | 4.0 | 0.00 | 0.00 | 0.00 | 36 | 1012.3 |
| 20260905184013 | 72 | 115 | 0.0 | 4.0 | 0.00 | 0.00 | 0.00 | 37 | 1012.3 |
| 20260905183512 | 72 | 115 | 0.0 | 4.0 | 0.00 | 0.00 | 0.00 | 37 | 1012.4 |
| 20260905183011 | 72 | 125 | 0.0 | 7.0 | 0.00 | 0.00 | 0.00 | 38 | 1012.5 |
| 20260905182511 | 72 | 55 | 2.0 | 7.0 | 0.00 | 0.00 | 0.00 | 37 | 1012.5 |
| 20260905182012 | 72 | 73 | 1.0 | 4.0 | 0.00 | 0.00 | 0.00 | 37 | 1012.4 |
| 20260905181512 | 72 | 341 | 0.0 | 7.0 | 0.00 | 0.00 | 0.00 | 39 | 1012.4 |
| 20260905181013 | 72 | 341 | 0.0 | 7.0 | 0.00 | 0.00 | 0.00 | 39 | 1012.3 |
| 20260905180512 | 72 | 37 | 0.0 | 5.0 | 0.00 | 0.00 | 0.00 | 40 | 1012.4 |
| 20260905180012 | 71 | 87 | 1.0 | 5.0 | 0.00 | 0.00 | 0.00 | 39 | 1012.4 |
| 20260905175512 | 71 | 39 | 0.0 | 4.0 | 0.00 | 0.00 | 0.00 | 39 | 1012.4 |
| 20260905175012 | 70 | 31 | 0.0 | 6.0 | 0.00 | 0.00 | 0.00 | 39 | 1012.3 |
| 20260905174514 | 70 | 35 | 0.0 | 6.0 | 0.00 | 0.00 | 0.00 | 38 | 1012.4 |
| 20260905174011 | 71 | 73 | 3.0 | 6.0 | 0.00 | 0.00 | 0.00 | 37 | 1012.3 |
| 20260905173513 | 71 | 338 | 0.0 | 2.0 | 0.00 | 0.00 | 0.00 | 39 | 1012.4 |
| 20260905173024 | 71 | 338 | 0.0 | 5.0 | 0.00 | 0.00 | 0.00 | 40 | 1012.3 |
| 20260905172512 | 71 | 338 | 1.0 | 5.0 | 0.00 | 0.00 | 0.00 | 39 | 1012.3 |
| 20260905172012 | 72 | 337 | 0.0 | 2.0 | 0.00 | 0.00 | 0.00 | 38 | 1012.3 |
| 20260905171512 | 70 | 337 | 0.0 | 3.0 | 0.00 | 0.00 | 0.00 | 42 | 1012.3 |
| 20260905171012 | 69 | 339 | 0.0 | 6.0 | 0.00 | 0.00 | 0.00 | 41 | 1012.3 |
| 20260905170512 | 69 | 339 | 0.0 | 6.0 | 0.00 | 0.00 | 0.00 | 41 | 1012.2 |
| 20260905170012 | 69 | 323 | 0.0 | 5.0 | 0.00 | 0.00 | 0.00 | 41 | 1012.2 |
| 20260905165512 | 69 | 323 | 0.0 | 6.0 | 0.00 | 0.00 | 0.00 | 41 | 1012.2 |
| 20260905165012 | 70 | 320 | 0.0 | 5.0 | 0.00 | 0.00 | 0.00 | 42 | 1012.2 |
| 20260905164513 | 69 | 320 | 0.0 | 4.0 | 0.00 | 0.00 | 0.00 | 44 | 1012.2 |
| 20260905164013 | 70 | 320 | 0.0 | 4.0 | 0.00 | 0.00 | 0.00 | 44 | 1012.2 |
| 20260905163512 | 70 | 320 | 0.0 | 0.0 | 0.00 | 0.00 | 0.00 | 42 | 1012.2 |
| 20260905163016 | 70 | 320 | 0.0 | 0.0 | 0.00 | 0.00 | 0.00 | 42 | 1012.2 |
| 20260905162513 | 70 | 320 | 0.0 | 0.0 | 0.00 | 0.00 | 0.00 | 43 | 1012.1 |
| 20260905162012 | 69 | 320 | 0.0 | 0.0 | 0.00 | 0.00 | 0.00 | 44 | 1012.2 |
| 20260905161511 | 69 | 320 | 0.0 | 0.0 | 0.00 | 0.00 | 0.00 | 44 | 1012.2 |
| 20260905161011 | 68 | 320 | 0.0 | 0.0 | 0.00 | 0.00 | 0.00 | 44 | 1012.4 |
| 20260905160512 | 67 | 320 | 0.0 | 0.0 | 0.00 | 0.00 | 0.00 | 44 | 1012.4 |
| 20260905160012 | 67 | 320 | 0.0 | 0.0 | 0.00 | 0.00 | 0.00 | 45 | 1012.3 |
| 20260905155512 | 67 | 320 | 0.0 | 0.0 | 0.00 | 0.00 | 0.00 | 45 | 1012.3 |
| 20260905155012 | 66 | 320 | 0.0 | 0.0 | 0.00 | 0.00 | 0.00 | 47 | 1012.3 |
| 20260905154512 | 66 | 320 | 0.0 | 0.0 | 0.00 | 0.00 | 0.00 | 48 | 1012.4 |
| 20260905154012 | 66 | 320 | 0.0 | 0.0 | 0.00 | 0.00 | 0.00 | 49 | 1012.4 |
| 20260905153512 | 65 | 320 | 0.0 | 0.0 | 0.00 | 0.00 | 0.00 | 49 | 1012.4 |
| 20260905153013 | 64 | 320 | 0.0 | 0.0 | 0.00 | 0.00 | 0.00 | 51 | 1012.3 |
| 20260905152615 | 63 | 320 | 0.0 | 0.0 | 0.00 | 0.00 | 0.00 | 53 | 1012.2 |
| 20260905152015 | 63 | 320 | 0.0 | 0.0 | 0.00 | 0.00 | 0.00 | 54 | 1012.3 |
| 20260905151511 | 62 | 320 | 0.0 | 0.0 | 0.00 | 0.00 | 0.00 | 55 | 1012.3 |
| 20260905151012 | 62 | 320 | 0.0 | 0.0 | 0.00 | 0.00 | 0.00 | 55 | 1012.2 |
| 20260905150512 | 60 | 320 | 0.0 | 0.0 | 0.00 | 0.00 | 0.00 | 58 | 1012.2 |
| 20260905150013 | 59 | 320 | 0.0 | 0.0 | 0.00 | 0.00 | 0.00 | 60 | 1012.1 |
| 20260905145512 | 58 | 320 | 0.0 | 0.0 | 0.00 | 0.00 | 0.00 | 61 | 1012.2 |
| 20260905145113 | 58 | 320 | 0.0 | 0.0 | 0.00 | 0.00 | 0.00 | 61 | 1012.2 |
| 20260905135602 | 57 | 320 | 0.0 | 0.0 | 0.00 | 0.00 | 0.00 | 61 | 1011.9 |
| 20260905135013 | 57 | 320 | 0.0 | 0.0 | 0.00 | 0.00 | 0.00 | 61 | 1011.9 |
| 20260905134512 | 57 | 320 | 0.0 | 0.0 | 0.00 | 0.00 | 0.00 | 61 | 1011.9 |
| 20260905134013 | 57 | 320 | 0.0 | 0.0 | 0.00 | 0.00 | 0.00 | 62 | 1011.9 |
| 20260905133513 | 57 | 320 | 0.0 | 0.0 | 0.00 | 0.00 | 0.00 | 61 | 1011.9 |
| 20260905133016 | 57 | 320 | 0.0 | 0.0 | 0.00 | 0.00 | 0.00 | 62 | 1011.8 |
| 20260905132512 | 57 | 320 | 0.0 | 0.0 | 0.00 | 0.00 | 0.00 | 61 | 1011.8 |
| 20260905070513 | 56 | 320 | 0.0 | 0.0 | 0.00 | 0.00 | 0.00 | 65 | 1012.9 |
| 20260905070013 | 55 | 320 | 0.0 | 0.0 | 0.00 | 0.00 | 0.00 | 65 | 1012.8 |
| 20260905065513 | 55 | 320 | 0.0 | 0.0 | 0.00 | 0.00 | 0.00 | 65 | 1012.8 |
| 20260905065012 | 55 | 320 | 0.0 | 5.0 | 0.00 | 0.00 | 0.00 | 65 | 1012.8 |
| 20260905064513 | 55 | 320 | 0.0 | 5.0 | 0.00 | 0.00 | 0.00 | 65 | 1012.8 |
| 20260905064013 | 55 | 324 | 0.0 | 0.0 | 0.00 | 0.00 | 0.00 | 66 | 1012.8 |
| 20260905063515 | 55 | 324 | 0.0 | 0.0 | 0.00 | 0.00 | 0.00 | 64 | 1012.8 |
| 20260905063014 | 56 | 324 | 0.0 | 0.0 | 0.00 | 0.00 | 0.00 | 63 | 1012.8 |
| 20260905062515 | 56 | 324 | 0.0 | 0.0 | 0.00 | 0.00 | 0.00 | 64 | 1012.7 |
| 20260905062012 | 56 | 324 | 0.0 | 0.0 | 0.00 | 0.00 | 0.00 | 64 | 1012.7 |
| 20260905061515 | 55 | 324 | 0.0 | 0.0 | 0.00 | 0.00 | 0.00 | 64 | 1012.6 |
| 20260905061012 | 55 | 324 | 0.0 | 0.0 | 0.00 | 0.00 | 0.00 | 64 | 1012.6 |
| 20260905060512 | 55 | 324 | 0.0 | 0.0 | 0.00 | 0.00 | 0.00 | 64 | 1012.6 |
| 20260905060013 | 55 | 324 | 0.0 | 0.0 | 0.00 | 0.00 | 0.00 | 64 | 1012.6 |
| 20260905055512 | 55 | 324 | 0.0 | 0.0 | 0.00 | 0.00 | 0.00 | 64 | 1012.6 |
| 20260905055016 | 55 | 324 | 0.0 | 0.0 | 0.00 | 0.00 | 0.00 | 64 | 1012.7 |
| 20260905054514 | 55 | 324 | 0.0 | 0.0 | 0.00 | 0.00 | 0.00 | 63 | 1012.7 |
| 20260905054012 | 56 | 324 | 0.0 | 0.0 | 0.00 | 0.00 | 0.00 | 63 | 1012.6 |
| 20260905053512 | 56 | 324 | 0.0 | 0.0 | 0.00 | 0.00 | 0.00 | 63 | 1012.6 |
| 20260905053115 | 56 | 324 | 0.0 | 0.0 | 0.00 | 0.00 | 0.00 | 63 | 1012.6 |
| 20260905052512 | 56 | 324 | 0.0 | 0.0 | 0.00 | 0.00 | 0.00 | 62 | 1012.6 |
| 20260905052014 | 56 | 324 | 0.0 | 0.0 | 0.00 | 0.00 | 0.00 | 62 | 1012.7 |
| 20260905051616 | 56 | 324 | 0.0 | 0.0 | 0.00 | 0.00 | 0.00 | 62 | 1012.7 |
| 20260905051012 | 56 | 324 | 0.0 | 0.0 | 0.00 | 0.00 | 0.00 | 63 | 1012.7 |
| 20260905050512 | 56 | 324 | 0.0 | 0.0 | 0.00 | 0.00 | 0.00 | 63 | 1012.7 |
| 20260905050113 | 56 | 324 | 0.0 | 0.0 | 0.00 | 0.00 | 0.00 | 63 | 1012.7 |
| 20260905045513 | 56 | 324 | 0.0 | 0.0 | 0.00 | 0.00 | 0.00 | 61 | 1012.6 |
| 20260905045013 | 56 | 324 | 0.0 | 0.0 | 0.00 | 0.00 | 0.00 | 61 | 1012.6 |
| 20260905044514 | 57 | 324 | 0.0 | 0.0 | 0.00 | 0.00 | 0.00 | 61 | 1012.5 |
| 20260905044018 | 57 | 324 | 0.0 | 0.0 | 0.00 | 0.00 | 0.00 | 61 | 1012.4 |
| 20260905043513 | 57 | 324 | 0.0 | 0.0 | 0.00 | 0.00 | 0.00 | 60 | 1012.4 |
| 20260905043013 | 57 | 324 | 0.0 | 1.0 | 0.00 | 0.00 | 0.00 | 59 | 1012.3 |
| 20260905042513 | 57 | 324 | 0.0 | 1.0 | 0.00 | 0.00 | 0.00 | 59 | 1012.2 |
| 20260905042014 | 58 | 324 | 0.0 | 0.0 | 0.00 | 0.00 | 0.00 | 58 | 1012.2 |
| 20260905041516 | 58 | 324 | 0.0 | 0.0 | 0.00 | 0.00 | 0.00 | 58 | 1012.1 |
| 20260905041013 | 59 | 324 | 0.0 | 0.0 | 0.00 | 0.00 | 0.00 | 57 | 1012.0 |
| 20260905040514 | 59 | 324 | 0.0 | 0.0 | 0.00 | 0.00 | 0.00 | 56 | 1012.0 |
| 20260905040014 | 60 | 324 | 0.0 | 0.0 | 0.00 | 0.00 | 0.00 | 58 | 1011.9 |
| 20260905035513 | 60 | 324 | 0.0 | 0.0 | 0.00 | 0.00 | 0.00 | 55 | 1011.8 |
| 20260905035013 | 60 | 324 | 0.0 | 0.0 | 0.00 | 0.00 | 0.00 | 54 | 1011.8 |
| 20260905034522 | 61 | 324 | 0.0 | 0.0 | 0.00 | 0.00 | 0.00 | 52 | 1011.7 |
| 20260905034012 | 61 | 324 | 0.0 | 0.0 | 0.00 | 0.00 | 0.00 | 56 | 1011.6 |
| 20260905033513 | 61 | 324 | 0.0 | 0.0 | 0.00 | 0.00 | 0.00 | 53 | 1011.5 |
| 20260905033015 | 62 | 324 | 0.0 | 0.0 | 0.00 | 0.00 | 0.00 | 52 | 1011.5 |
| 20260905032513 | 62 | 324 | 0.0 | 0.0 | 0.00 | 0.00 | 0.00 | 51 | 1011.5 |
| 20260905032013 | 63 | 324 | 0.0 | 4.0 | 0.00 | 0.00 | 0.00 | 50 | 1011.4 |
| 20260905031520 | 64 | 324 | 0.0 | 4.0 | 0.00 | 0.00 | 0.00 | 52 | 1011.4 |
| 20260905031012 | 64 | 324 | 0.0 | 4.0 | 0.00 | 0.00 | 0.00 | 52 | 1011.3 |
| 20260905030513 | 64 | 324 | 0.0 | 5.0 | 0.00 | 0.00 | 0.00 | 51 | 1011.3 |
| 20260905030023 | 65 | 324 | 1.0 | 5.0 | 0.00 | 0.00 | 0.00 | 50 | 1011.3 |
| 20260905025512 | 65 | 324 | 1.0 | 5.0 | 0.00 | 0.00 | 0.00 | 49 | 1011.2 |
| 20260905025013 | 65 | 324 | 0.0 | 5.0 | 0.00 | 0.00 | 0.00 | 48 | 1011.2 |
| 20260905024641 | 65 | 324 | 1.0 | 5.0 | 0.00 | 0.00 | 0.00 | 47 | 1011.2 |
| 20260905024113 | 66 | 325 | 0.0 | 11.0 | 0.00 | 0.00 | 0.00 | 46 | 1011.1 |
| 20260905023513 | 66 | 326 | 4.0 | 11.0 | 0.00 | 0.00 | 0.00 | 45 | 1011.0 |
| 20260905023025 | 66 | 312 | 1.0 | 5.0 | 0.00 | 0.00 | 0.00 | 43 | 1010.9 |
| 20260905022512 | 67 | 322 | 0.0 | 8.0 | 0.00 | 0.00 | 0.00 | 42 | 1010.9 |
| 20260905022012 | 67 | 319 | 1.0 | 8.0 | 0.00 | 0.00 | 0.00 | 42 | 1010.9 |
| 20260905021513 | 67 | 320 | 2.0 | 10.0 | 0.00 | 0.00 | 0.00 | 41 | 1010.8 |
| 20260905021012 | 68 | 346 | 3.0 | 10.0 | 0.00 | 0.00 | 0.00 | 41 | 1010.8 |
| 20260905020516 | 68 | 312 | 1.0 | 10.0 | 0.00 | 0.00 | 0.00 | 41 | 1010.7 |
| 20260905020014 | 69 | 304 | 2.0 | 10.0 | 0.00 | 0.00 | 0.00 | 41 | 1010.8 |
| 20260905015513 | 69 | 318 | 3.0 | 10.0 | 0.00 | 0.00 | 0.00 | 40 | 1010.8 |
| 20260905015015 | 69 | 322 | 1.0 | 9.0 | 0.00 | 0.00 | 0.00 | 40 | 1010.8 |
| 20260905014513 | 70 | 318 | 3.0 | 10.0 | 0.00 | 0.00 | 0.00 | 40 | 1010.8 |
| 20260905014013 | 71 | 292 | 2.0 | 10.0 | 0.00 | 0.00 | 0.00 | 39 | 1010.8 |
| 20260905013612 | 71 | 328 | 3.0 | 9.0 | 0.00 | 0.00 | 0.00 | 38 | 1010.7 |
| 20260905013013 | 72 | 310 | 0.0 | 10.0 | 0.00 | 0.00 | 0.00 | 38 | 1010.6 |
| 20260905012614 | 72 | 289 | 3.0 | 10.0 | 0.00 | 0.00 | 0.00 | 37 | 1010.7 |
| 20260905012014 | 72 | 319 | 4.0 | 10.0 | 0.00 | 0.00 | 0.00 | 37 | 1010.6 |
| 20260905011512 | 73 | 348 | 3.0 | 10.0 | 0.00 | 0.00 | 0.00 | 36 | 1010.6 |
| 20260905011013 | 73 | 310 | 0.0 | 8.0 | 0.00 | 0.00 | 0.00 | 37 | 1010.6 |
| 20260905010514 | 72 | 342 | 4.0 | 8.0 | 0.00 | 0.00 | 0.00 | 37 | 1010.7 |
| 20260905010112 | 72 | 291 | 2.0 | 8.0 | 0.00 | 0.00 | 0.00 | 37 | 1010.7 |
| 20260905005515 | 72 | 317 | 0.0 | 7.0 | 0.00 | 0.00 | 0.00 | 37 | 1010.6 |
| 20260905005013 | 72 | 323 | 0.0 | 4.0 | 0.00 | 0.00 | 0.00 | 37 | 1010.7 |
| 20260905004516 | 72 | 324 | 0.0 | 0.0 | 0.00 | 0.00 | 0.00 | 38 | 1010.7 |
| 20260905004012 | 71 | 324 | 0.0 | 4.0 | 0.00 | 0.00 | 0.00 | 38 | 1010.6 |
| 20260905003513 | 71 | 324 | 0.0 | 5.0 | 0.00 | 0.00 | 0.00 | 38 | 1010.7 |
| 20260905003013 | 72 | 324 | 0.0 | 7.0 | 0.00 | 0.00 | 0.00 | 37 | 1010.6 |
| 20260905002513 | 72 | 321 | 2.0 | 7.0 | 0.00 | 0.00 | 0.00 | 36 | 1010.6 |
| 20260905002013 | 73 | 325 | 0.0 | 0.0 | 0.00 | 0.00 | 0.00 | 36 | 1010.5 |
| 20260905001513 | 73 | 325 | 0.0 | 0.0 | 0.00 | 0.00 | 0.00 | 36 | 1010.6 |
| 20260905001013 | 74 | 325 | 0.0 | 6.0 | 0.00 | 0.00 | 0.00 | 36 | 1010.5 |
| 20260905000513 | 74 | 325 | 1.0 | 6.0 | 0.00 | 0.00 | 0.00 | 35 | 1010.6 |
| 20260905000014 | 73 | 338 | 0.0 | 5.0 | 0.00 | 0.00 | 0.00 | 37 | 1010.6 |
| 20260904235512 | 73 | 338 | 1.0 | 6.0 | 0.00 | 0.00 | 0.00 | 36 | 1010.7 |
| 20260904235016 | 72 | 339 | 0.0 | 6.0 | 0.00 | 0.00 | 0.00 | 39 | 1010.6 |
| 20260904234513 | 71 | 339 | 0.0 | 4.0 | 0.00 | 0.00 | 0.00 | 38 | 1010.8 |
| 20260904234017 | 71 | 339 | 0.0 | 5.0 | 0.00 | 0.00 | 0.00 | 40 | 1010.7 |
| 20260904233513 | 71 | 339 | 1.0 | 5.0 | 0.00 | 0.00 | 0.00 | 40 | 1010.8 |
| 20260904233013 | 71 | 338 | 3.0 | 6.0 | 0.00 | 0.00 | 0.00 | 39 | 1010.8 |
| 20260904232513 | 71 | 327 | 0.0 | 7.0 | 0.00 | 0.00 | 0.00 | 41 | 1010.8 |
| 20260904232013 | 71 | 326 | 0.0 | 7.0 | 0.00 | 0.00 | 0.00 | 41 | 1010.8 |
| 20260904231516 | 71 | 326 | 1.0 | 7.0 | 0.00 | 0.00 | 0.00 | 41 | 1010.8 |
| 20260904231014 | 71 | 326 | 1.0 | 7.0 | 0.00 | 0.00 | 0.00 | 40 | 1010.8 |
| 20260904230513 | 71 | 326 | 0.0 | 7.0 | 0.00 | 0.00 | 0.00 | 40 | 1010.8 |
| 20260904230013 | 71 | 334 | 0.0 | 6.0 | 0.00 | 0.00 | 0.00 | 40 | 1010.8 |
| 20260904225515 | 71 | 334 | 0.0 | 6.0 | 0.00 | 0.00 | 0.00 | 39 | 1010.9 |
| 20260904225013 | 72 | 318 | 4.0 | 6.0 | 0.00 | 0.00 | 0.00 | 38 | 1010.9 |
| 20260904224519 | 72 | 317 | 0.0 | 2.0 | 0.00 | 0.00 | 0.00 | 36 | 1010.9 |
| 20260904224015 | 72 | 317 | 0.0 | 3.0 | 0.00 | 0.00 | 0.00 | 37 | 1011.0 |
| 20260904223514 | 71 | 317 | 0.0 | 7.0 | 0.00 | 0.00 | 0.00 | 38 | 1011.1 |
| 20260904223014 | 71 | 316 | 1.0 | 7.0 | 0.00 | 0.00 | 0.00 | 37 | 1011.1 |
| 20260904222613 | 71 | 292 | 0.0 | 5.0 | 0.00 | 0.00 | 0.00 | 36 | 1011.1 |
| 20260904222114 | 71 | 292 | 1.0 | 7.0 | 0.00 | 0.00 | 0.00 | 36 | 1011.2 |
| 20260904221513 | 71 | 293 | 0.0 | 7.0 | 0.00 | 0.00 | 0.00 | 37 | 1011.3 |
| 20260904221013 | 71 | 291 | 1.0 | 6.0 | 0.00 | 0.00 | 0.00 | 37 | 1011.3 |
| 20260904220513 | 71 | 297 | 2.0 | 8.0 | 0.00 | 0.00 | 0.00 | 36 | 1011.4 |